IW1CBG-3 Weather Reports


time (UTC)temp
C
wind
direction
speed
KPH
gust
KPH
rain 1hr
cm
rain 24hr
cm
rain mn
cm
humidity
%
barometer
mb
20260506203748 11 148 8.0 0.0 0.00 0.00 0.00 84 1021.6
20260506202749 11 158 11.3 0.0 0.00 0.00 0.00 82 1021.3
20260506201748 13 179 9.7 0.0 0.00 0.00 0.00 77 1020.4
20260506200749 13 178 4.8 0.0 0.00 0.00 0.00 76 1020.4
20260506195748 13 117 33.8 0.0 0.00 0.00 0.00 76 1020.3
20260506194748 13 126 20.9 0.0 0.00 0.00 0.00 74 1020.2
20260506193749 13 121 11.3 0.0 0.00 0.00 0.00 76 1020.1
20260506192749 13 125 19.3 0.0 0.00 0.00 0.00 76 1019.7
20260506191749 13 100 6.4 0.0 0.00 0.00 0.00 73 1019.8
20260506190749 13 136 11.3 0.0 0.00 0.00 0.00 72 1018.8
20260506185749 13 102 11.3 0.0 0.00 0.00 0.00 72 1018.9
20260506184748 13 153 11.3 0.0 0.00 0.00 0.00 74 1019.0
20260506183748 14 107 11.3 0.0 0.00 0.00 0.00 69 1018.6
20260506182749 14 139 12.9 0.0 0.00 0.00 0.00 69 1018.4
20260506181749 14 152 12.9 0.0 0.00 0.00 0.00 71 1018.1
20260506180749 15 134 25.7 0.0 0.00 0.00 0.00 69 1017.8
20260506175749 15 161 9.7 0.0 0.00 0.00 0.00 71 1017.6
20260506174748 15 118 33.8 0.0 0.00 0.00 0.00 69 1017.3
20260506173748 15 139 6.4 0.0 0.00 0.00 0.00 68 1017.3
20260506172748 15 154 9.7 0.0 0.00 0.00 0.00 68 1016.7
20260506171749 15 147 14.5 0.0 0.00 0.00 0.00 70 1017.3
20260506170748 16 97 16.1 0.0 0.00 0.00 0.00 69 1016.7
20260506165749 16 126 17.7 0.0 0.00 0.00 0.00 69 1016.9
20260506163749 16 126 17.7 0.0 0.00 0.00 0.00 67 1016.7
20260506162750 16 105 12.9 0.0 0.00 0.00 0.00 68 1016.8
20260506161749 16 121 29.0 0.0 0.00 0.00 0.00 68 1016.7
20260506160748 16 126 22.5 0.0 0.00 0.00 0.00 66 1016.5
20260506155748 16 171 20.9 0.0 0.00 0.00 0.00 66 1016.4
20260506154749 16 120 24.1 0.0 0.00 0.00 0.00 67 1016.6
20260506153749 16 169 20.9 0.0 0.00 0.00 0.00 69 1016.7
20260506152749 16 158 24.1 0.0 0.00 0.00 0.00 68 1016.5
20260506151749 16 165 11.3 0.0 0.00 0.00 0.00 68 1016.9
20260506150748 16 138 22.5 0.0 0.00 0.00 0.00 69 1016.8
20260506145748 16 180 16.1 0.0 0.00 0.00 0.00 69 1016.8
20260506144748 16 168 11.3 0.0 0.00 0.00 0.00 68 1016.7
20260506143749 16 176 9.7 0.0 0.00 0.00 0.00 69 1016.9
20260506142749 16 146 14.5 0.0 0.00 0.00 0.00 68 1016.8
20260506141748 16 185 8.0 0.0 0.00 0.00 0.00 66 1016.6
20260506140749 17 110 12.9 0.0 0.00 0.00 0.00 66 1016.5
20260506135749 17 126 12.9 0.0 0.00 0.00 0.00 66 1016.3
20260506134749 16 124 33.8 0.0 0.00 0.00 0.00 67 1016.4
20260506133748 16 174 19.3 0.0 0.00 0.00 0.00 67 1017.2
20260506132748 16 188 14.5 0.0 0.00 0.00 0.00 68 1016.8
20260506131749 17 170 20.9 0.0 0.00 0.00 0.00 66 1016.4
20260506130748 17 169 20.9 0.0 0.00 0.00 0.00 64 1016.9
20260506125749 16 121 35.4 0.0 0.00 0.00 0.00 65 1016.9
20260506123749 17 176 16.1 0.0 0.00 0.00 0.00 63 1016.6
20260506122749 17 124 30.6 0.0 0.00 0.00 0.00 62 1016.5
20260506121749 16 154 24.1 0.0 0.00 0.00 0.00 63 1016.4
20260506120749 17 137 19.3 0.0 0.00 0.00 0.00 64 1016.3
20260506115749 17 142 35.4 0.0 0.00 0.00 0.00 62 1016.3
20260506114749 17 136 14.5 0.0 0.00 0.00 0.00 60 1016.2
20260506113749 16 177 32.2 0.0 0.00 0.00 0.00 61 1016.6
20260506112749 16 146 12.9 0.0 0.00 0.00 0.00 63 1016.9
20260506111750 16 121 27.4 0.0 0.00 0.00 0.00 63 1016.4
20260506110749 17 136 12.9 0.0 0.00 0.00 0.00 61 1016.7
20260506105749 16 117 27.4 0.0 0.00 0.00 0.00 62 1016.7
20260506104750 16 128 25.7 0.0 0.00 0.00 0.00 64 1016.8
20260506103749 16 142 29.0 0.0 0.00 0.00 0.00 65 1017.2
20260506102748 15 119 24.1 0.0 0.00 0.00 0.00 70 1017.5
20260506101749 15 115 17.7 0.0 0.00 0.00 0.00 70 1017.5
20260506100749 15 104 35.4 0.0 0.00 0.00 0.00 69 1017.4
20260506095748 15 121 25.7 0.0 0.00 0.00 0.00 69 1017.6
20260506094749 15 132 24.1 0.0 0.00 0.00 0.00 74 1017.4
20260506093749 15 125 20.9 0.0 0.00 0.00 0.00 72 1017.7
20260506092749 14 110 27.4 0.0 0.00 0.00 0.00 72 1018.0
20260506091749 14 146 11.3 0.0 0.00 0.00 0.00 74 1018.0
20260506090750 13 112 20.9 0.0 0.00 0.00 0.00 79 1018.0
20260506085749 13 95 16.1 0.0 0.00 0.00 0.00 79 1017.9
20260506083748 13 105 16.1 0.0 0.00 0.00 0.00 78 1018.2
20260506082748 14 113 29.0 0.0 0.00 0.00 0.00 76 1017.7
20260506081748 13 126 12.9 0.0 0.00 0.00 0.00 78 1018.0
20260506080749 13 88 8.0 0.0 0.00 0.00 0.00 77 1017.9
20260506072749 12 140 6.4 0.0 0.00 0.00 0.00 85 1018.4
20260506071749 12 142 8.0 0.0 0.00 0.00 0.00 86 1018.5
20260506070748 12 178 9.7 0.0 0.00 0.00 0.00 86 1018.8
20260506061749 10 179 4.8 0.0 0.00 0.00 0.00 99 1019.7
20260506060749 10 166 8.0 0.0 0.00 0.00 0.00 99 1019.7
20260506050748 8 93 3.2 0.0 0.00 0.00 0.00 99 1020.5
20260506043749 8 325 0.0 0.0 0.00 0.00 0.00 99 1021.0
20260506042749 8 341 0.0 0.0 0.00 0.00 0.00 99 1020.9
20260506041749 8 42 0.0 0.0 0.00 0.00 0.00 99 1021.0
20260506040750 8 101 0.0 0.0 0.00 0.00 0.00 99 1021.0
20260506035748 8 15 0.0 0.0 0.00 0.00 0.00 99 1021.1
20260506034749 8 132 3.2 0.0 0.00 0.00 0.00 99 1021.1
20260506033749 8 110 4.8 0.0 0.00 0.00 0.00 99 1021.1
20260506032749 8 292 6.4 0.0 0.00 0.00 0.00 99 1021.0
20260506031749 8 276 3.2 0.0 0.00 0.00 0.00 99 1021.5
20260506030749 8 121 3.2 0.0 0.00 0.00 0.00 99 1021.5
20260506025749 8 183 3.2 0.0 0.00 0.00 0.00 99 1021.7
20260506024749 8 173 0.0 0.0 0.00 0.00 0.00 99 1021.5
20260506023748 9 143 4.8 0.0 0.00 0.00 0.00 99 1021.5
20260506022749 9 144 1.6 0.0 0.00 0.00 0.00 99 1021.6
20260506021749 9 115 6.4 0.0 0.00 0.00 0.00 99 1022.0
20260506020749 9 183 0.0 0.0 0.00 0.00 0.00 99 1022.1
20260506015748 9 114 3.2 0.0 0.00 0.00 0.00 99 1022.1
20260506014749 9 137 8.0 0.0 0.00 0.00 0.00 99 1022.2
20260506013748 9 167 8.0 0.0 0.00 0.00 0.00 99 1022.1
20260506012748 9 147 0.0 0.0 0.00 0.00 0.00 99 1022.4
20260506011747 9 148 0.0 0.0 0.00 0.00 0.00 99 1022.5
20260506010750 9 165 3.2 0.0 0.00 0.00 0.00 99 1022.4
20260506005747 9 103 0.0 0.0 0.00 0.00 0.00 99 1022.4
20260506003747 9 89 0.0 0.0 0.00 0.00 0.00 99 1022.4
20260506002747 9 240 0.0 0.0 0.00 0.00 0.00 99 1022.8
20260506001748 9 148 3.2 0.0 0.00 0.00 0.00 99 1022.9
20260506000747 9 22 0.0 0.0 0.00 0.00 0.00 99 1023.1
20260505235747 9 117 0.0 0.0 0.00 0.00 0.00 99 1023.8
20260505234748 9 347 0.0 0.0 0.00 0.00 0.00 99 1023.9
20260505233747 9 135 0.0 0.0 0.00 0.00 0.00 99 1023.6
20260505232747 9 17 3.2 0.0 0.00 0.00 0.00 99 1023.8
20260505231748 9 153 9.7 0.0 0.00 0.00 0.00 99 1024.1
20260505230747 9 359 0.0 0.0 0.00 0.00 0.00 99 1023.7
20260505225747 9 44 0.0 0.0 0.00 0.00 0.00 99 1023.9
20260505224747 9 142 1.6 0.0 0.00 0.00 0.00 99 1023.8
20260505223747 9 174 4.8 0.0 0.00 0.00 0.00 99 1023.9
20260505222747 9 122 0.0 0.0 0.00 0.00 0.00 99 1023.8
20260505221747 9 164 4.8 0.0 0.00 0.00 0.00 99 1024.3
20260505220746 9 256 0.0 0.0 0.00 0.00 0.00 99 1024.4
20260505215747 9 131 1.6 0.0 0.00 0.00 0.00 99 1024.4
20260505214747 9 150 3.2 0.0 0.00 0.00 0.00 99 1024.4
20260505213748 9 165 3.2 0.0 0.00 0.00 0.00 99 1024.6
20260505212747 9 137 4.8 0.0 0.00 0.00 0.00 99 1024.6
20260505211747 9 133 0.0 0.0 0.00 0.00 0.00 99 1024.7
20260505210747 9 114 3.2 0.0 0.00 0.00 0.00 99 1024.9
20260505205747 9 92 3.2 0.0 0.00 0.00 0.00 99 1024.9